Location: Newark
(44.4156°N, 12.1972°E)
Time: 06:43:42
(UTC+00:00)

STARLINK-1097 - Pass Details

Date: 31 January 2020
Orbit: 549 x 551 km, 53.0° (Epoch: 23 February)

Event Time Altitude Azimuth Distance (km) Brightness Sun altitude
Rises 16:28:19 0° 303° (WNW) 2,723 7.7 -2.5°
Reaches altitude 10° 16:30:39 10° 311° (NW) 1,828 6.7 -2.9°
Maximum altitude 16:34:37 42° 23° (NNE) 788 4.1 -3.5°
Drops below altitude 10° 16:38:35 10° 96° (E) 1,824 5.7 -4.2°
Enters shadow 16:40:38 - 103° (ESE) 2,613 6.6 -4.5°
